QPF
0.07 0.06 0.06 0.06 0.05 0.04 0.03 0.04 0.04 0.03 0.04 0.05 0.04 0.03 0.03 0.03 0.03 0.03 0.05 0.07 0.07 0.07 0.07 0.10 0.11 0.13 0.13 0.11 0.09 0.08 0.06 0.05 0.05 0.05 0.05 0.05 0.06 0.09
0.07 0.06 0.06 0.05 0.03 0.02 0.03 0.05 0.05 0.04 0.03 0.05 0.06 0.06 0.05 0.04 0.03 0.03 0.04 0.05 0.06 0.07 0.08 0.10 0.13 0.14 0.14 0.12 0.10 0.07 0.05 0.04 0.04 0.05 0.06 0.06 0.07 0.07
0.06 0.06 0.05 0.04 0.03 0.04 0.04 0.04 0.05 0.05 0.04 0.05 0.08 0.05 0.04 0.03 0.03 0.04 0.05 0.05 0.05 0.06 0.08 0.10 0.10 0.11 0.12 0.11 0.08 0.06 0.06 0.05 0.05 0.05 0.04 0.05 0.05 0.04
0.07 0.05 0.07 0.08 0.06 0.06 0.05 0.07 0.07 0.06 0.05 0.05 0.05 0.04 0.03 0.02 0.03 0.04 0.05 0.05 0.05 0.06 0.06 0.07 0.08 0.09 0.09 0.09 0.08 0.06 0.06 0.05 0.05 0.05 0.04 0.04 0.04 0.04
0.11 0.07 0.06 0.07 0.06 0.07 0.08 0.07 0.07 0.05 0.04 0.03 0.03 0.02 0.02 0.01 0.02 0.03 0.04 0.05 0.05 0.06 0.05 0.05 0.06 0.08 0.09 0.09 0.06 0.04 0.04 0.04 0.04 0.04 0.04 0.04 0.04 0.04
0.08 0.07 0.07 0.06 0.06 0.07 0.08 0.06 0.05 0.04 0.03 0.02 0.01 0.01 0.01 0.01 0.01 0.02 0.03 0.03 0.03 0.04 0.03 0.03 0.03 0.04 0.03 0.03 0.03 0.03 0.02 0.02 0.02 0.03 0.03 0.04 0.03 0.03
0.04 0.04 0.05 0.06 0.06 0.06 0.05 0.05 0.04 0.03 0.02 0.02 0.02 0.01 0.01 0.02 0.02 0.03 0.03 0.02 0.02 0.01 0.01 0.01 0.01 0.01 0.01 0.01 0.02 0.02 0.02 0.02 0.02 0.02 0.02 0.02 0.03 0.03
0.04 0.04 0.04 0.05 0.06 0.05 0.05 0.04 0.03 0.02 0.02 0.01 0.01 0.01 0.01 0.02 0.03 0.03 0.02 0.01 0.01 0.01 0.00 0.01 0.01 0.00 0.00 0.00 0.01 0.01 0.02 0.02 0.01 0.01 0.01 0.01 0.01 0.02
0.05 0.05 0.04 0.04 0.04 0.03 0.03 0.03 0.02 0.02 0.02 0.02 0.01 0.01 0.02 0.03 0.04 0.03 0.02 0.01 0.01 0.01 0.00 0.00 0.01 0.01 0.01 0.00 0.00 0.01 0.01 0.01 0.01 0.01 0.01 0.01 0.02 0.02
0.06 0.07 0.05 0.04 0.04 0.02 0.02 0.01 0.01 0.02 0.04 0.04 0.03 0.04 0.04 0.04 0.04 0.03 0.03 0.02 0.01 0.01 0.01 0.01 0.01 0.01 0.01 0.01 0.01 0.01 0.01 0.01 0.01 0.01 0.01 0.01 0.01 0.01
0.08 0.06 0.04 0.03 0.04 0.03 0.01 0.01 0.01 0.02 0.05 0.05 0.05 0.05 0.05 0.05 0.04 0.04 0.03 0.02 0.01 0.01 0.02 0.02 0.01 0.01 0.01 0.01 0.01 0.01 0.01 0.01 0.02 0.01 0.01 0.01 0.01 0.01
0.05 0.03 0.02 0.02 0.02 0.02 0.01 0.01 0.01 0.01 0.02 0.03 0.03 0.04 0.04 0.04 0.03 0.02 0.02 0.02 0.02 0.02 0.03 0.03 0.04 0.04 0.03 0.02 0.02 0.01 0.02 0.02 0.02 0.01 0.01 0.01 0.01 0.00
0.01 0.01 0.01 0.01 0.01 0.01 0.01 0.00 0.01 0.01 0.01 0.01 0.01 0.02 0.02 0.03 0.03 0.02 0.02 0.02 0.02 0.03 0.03 0.03 0.04 0.04 0.04 0.03 0.03 0.02 0.02 0.02 0.02 0.01 0.01 0.01 0.01 0.01
0.02 0.02 0.01 0.01 0.01 0.00 0.00 0.00 0.00 0.00 0.00 0.01 0.01 0.02 0.02 0.03 0.03 0.03 0.02 0.02 0.03 0.04 0.05 0.05 0.05 0.05 0.04 0.03 0.03 0.02 0.01 0.01 0.01 0.01 0.01 0.01 0.01 0.01
0.01 0.01 0.01 0.01 0.00 0.00 0.00 0.00 0.00 0.00 0.00 0.00 0.01 0.02 0.03 0.05 0.05 0.05 0.05 0.04 0.04 0.04 0.04 0.03 0.03 0.03 0.03 0.03 0.02 0.01 0.01 0.00 0.00 0.00 0.00 0.01 0.01 0.02
0.01 0.01 0.01 0.01 0.01 0.00 0.00 0.00 0.00 0.00 0.00 0.01 0.01 0.01 0.01 0.02 0.03 0.04 0.05 0.05 0.04 0.02 0.02 0.02 0.02 0.02 0.01 0.01 0.01 0.01 0.01 0.00 0.00 0.00 0.00 0.01 0.01 0.02
0.01 0.01 0.01 0.01 0.01 0.00 0.01 0.00 0.00 0.00 0.01 0.01 0.01 0.02 0.02 0.02 0.02 0.02 0.02 0.02 0.02 0.02 0.03 0.03 0.02 0.02 0.02 0.02 0.02 0.01 0.01 0.00 0.00 0.00 0.00 0.00 0.01 0.02
0.01 0.01 0.01 0.01 0.01 0.01 0.01 0.00 0.00 0.00 0.00 0.01 0.01 0.01 0.01 0.01 0.01 0.01 0.01 0.01 0.00 0.01 0.02 0.04 0.04 0.03 0.02 0.02 0.02 0.01 0.01 0.01 0.00 0.00 0.01 0.01 0.01 0.01
0.01 0.01 0.01 0.01 0.00 0.00 0.00 0.00 0.01 0.01 0.01 0.01 0.01 0.01 0.01 0.01 0.01 0.01 0.01 0.01 0.01 0.01 0.02 0.03 0.03 0.03 0.01 0.01 0.01 0.02 0.01 0.01 0.01 0.01 0.01 0.01 0.01 0.01
0.01 0.01 0.01 0.01 0.01 0.01 0.01 0.01 0.01 0.01 0.01 0.01 0.01 0.01 0.01 0.01 0.01 0.01 0.01 0.01 0.01 0.02 0.02 0.02 0.02 0.02 0.02 0.02 0.02 0.02 0.02 0.02 0.02 0.02 0.02 0.02 0.01 0.01
0.01 0.01 0.01 0.01 0.01 0.01 0.01 0.01 0.01 0.01 0.01 0.00 0.00 0.01 0.01 0.01 0.00 0.01 0.01 0.01 0.01 0.01 0.01 0.01 0.03 0.05 0.05 0.04 0.03 0.02 0.02 0.03 0.04 0.04 0.03 0.02 0.01 0.01
0.01 0.01 0.02 0.02 0.02 0.02 0.01 0.01 0.01 0.01 0.01 0.01 0.00 0.01 0.01 0.01 0.01 0.01 0.01 0.01 0.01 0.01 0.01 0.02 0.04 0.04 0.04 0.04 0.03 0.03 0.03 0.03 0.03 0.03 0.02 0.01 0.01 0.00
0.01 0.02 0.02 0.02 0.03 0.03 0.02 0.02 0.02 0.01 0.01 0.01 0.01 0.01 0.01 0.01 0.01 0.01 0.02 0.02 0.02 0.02 0.02 0.03 0.03 0.03 0.04 0.04 0.04 0.04 0.03 0.02 0.02 0.02 0.02 0.01 0.01 0.01
MSLP
1015.76 1016.14 1016.54 1016.93 1017.32 1017.68 1018.02 1018.34 1018.64 1018.93 1019.22 1019.50 1019.79 1020.06 1020.31 1020.52 1020.70 1020.85 1020.97 1021.08 1021.20 1021.33 1021.49 1021.69 1021.90 1022.13 1022.36 1022.57 1022.75 1022.90 1023.03 1023.13 1023.23 1023.32 1023.41 1023.50 1023.58 1023.64
1014.99 1015.38 1015.78 1016.19 1016.60 1017.01 1017.41 1017.81 1018.23 1018.65 1019.10 1019.55 1019.99 1020.41 1020.79 1021.11 1021.37 1021.57 1021.72 1021.84 1021.95 1022.08 1022.23 1022.42 1022.64 1022.88 1023.12 1023.35 1023.56 1023.73 1023.87 1023.99 1024.09 1024.18 1024.26 1024.33 1024.38 1024.40
1014.30 1014.69 1015.09 1015.51 1015.93 1016.37 1016.82 1017.31 1017.82 1018.37 1018.96 1019.56 1020.15 1020.72 1021.23 1021.66 1022.00 1022.27 1022.46 1022.60 1022.72 1022.84 1022.99 1023.17 1023.39 1023.62 1023.87 1024.10 1024.31 1024.48 1024.63 1024.74 1024.83 1024.91 1024.97 1025.01 1025.02 1024.99
1013.79 1014.17 1014.57 1014.98 1015.41 1015.86 1016.35 1016.89 1017.48 1018.13 1018.82 1019.54 1020.27 1020.96 1021.58 1022.12 1022.55 1022.88 1023.12 1023.30 1023.44 1023.57 1023.72 1023.89 1024.09 1024.31 1024.53 1024.75 1024.94 1025.09 1025.21 1025.30 1025.37 1025.42 1025.45 1025.46 1025.44 1025.37
1013.53 1013.90 1014.28 1014.67 1015.09 1015.54 1016.04 1016.60 1017.23 1017.94 1018.70 1019.51 1020.32 1021.10 1021.82 1022.44 1022.96 1023.36 1023.66 1023.88 1024.05 1024.21 1024.36 1024.53 1024.71 1024.90 1025.09 1025.27 1025.41 1025.53 1025.61 1025.66 1025.70 1025.71 1025.71 1025.69 1025.64 1025.55
1013.56 1013.90 1014.25 1014.62 1015.01 1015.44 1015.92 1016.48 1017.11 1017.83 1018.62 1019.47 1020.33 1021.16 1021.94 1022.63 1023.21 1023.68 1024.04 1024.32 1024.54 1024.72 1024.89 1025.05 1025.22 1025.38 1025.53 1025.66 1025.75 1025.81 1025.85 1025.85 1025.85 1025.83 1025.81 1025.77 1025.70 1025.59
1013.85 1014.16 1014.48 1014.81 1015.16 1015.56 1016.00 1016.52 1017.13 1017.83 1018.60 1019.44 1020.30 1021.16 1021.97 1022.70 1023.33 1023.85 1024.28 1024.61 1024.88 1025.10 1025.29 1025.47 1025.63 1025.76 1025.87 1025.95 1025.99 1026.00 1025.98 1025.94 1025.90 1025.85 1025.81 1025.76 1025.69 1025.58
1014.34 1014.62 1014.91 1015.20 1015.52 1015.86 1016.26 1016.73 1017.29 1017.93 1018.66 1019.46 1020.29 1021.13 1021.94 1022.68 1023.34 1023.91 1024.39 1024.78 1025.10 1025.36 1025.59 1025.78 1025.94 1026.06 1026.14 1026.18 1026.18 1026.14 1026.08 1026.00 1025.93 1025.87 1025.81 1025.75 1025.68 1025.58
1014.97 1015.22 1015.48 1015.74 1016.02 1016.32 1016.68 1017.09 1017.58 1018.16 1018.83 1019.56 1020.34 1021.14 1021.92 1022.65 1023.32 1023.91 1024.42 1024.85 1025.22 1025.52 1025.78 1026.00 1026.16 1026.29 1026.36 1026.37 1026.34 1026.28 1026.19 1026.09 1026.00 1025.92 1025.85 1025.79 1025.72 1025.62
1015.65 1015.89 1016.13 1016.38 1016.63 1016.91 1017.22 1017.59 1018.03 1018.54 1019.14 1019.80 1020.51 1021.24 1021.97 1022.67 1023.32 1023.91 1024.44 1024.89 1025.29 1025.62 1025.91 1026.15 1026.33 1026.46 1026.53 1026.55 1026.51 1026.44 1026.34 1026.22 1026.12 1026.02 1025.94 1025.87 1025.79 1025.69
1016.35 1016.58 1016.83 1017.07 1017.32 1017.59 1017.88 1018.21 1018.60 1019.06 1019.59 1020.18 1020.82 1021.49 1022.16 1022.80 1023.42 1023.98 1024.49 1024.94 1025.34 1025.69 1026.00 1026.25 1026.45 1026.59 1026.68 1026.70 1026.67 1026.60 1026.50 1026.38 1026.26 1026.15 1026.05 1025.96 1025.85 1025.72
1017.02 1017.27 1017.53 1017.79 1018.05 1018.32 1018.61 1018.93 1019.29 1019.71 1020.19 1020.72 1021.29 1021.88 1022.48 1023.06 1023.62 1024.13 1024.61 1025.03 1025.41 1025.76 1026.06 1026.31 1026.52 1026.67 1026.77 1026.81 1026.79 1026.73 1026.63 1026.51 1026.38 1026.24 1026.11 1025.98 1025.84 1025.67
1017.67 1017.95 1018.23 1018.52 1018.80 1019.08 1019.38 1019.70 1020.05 1020.44 1020.88 1021.36 1021.87 1022.40 1022.92 1023.44 1023.92 1024.38 1024.79 1025.17 1025.51 1025.82 1026.10 1026.34 1026.54 1026.70 1026.80 1026.85 1026.84 1026.78 1026.68 1026.55 1026.40 1026.24 1026.07 1025.89 1025.70 1025.48
1018.28 1018.59 1018.90 1019.21 1019.52 1019.82 1020.13 1020.46 1020.80 1021.18 1021.59 1022.03 1022.50 1022.97 1023.43 1023.87 1024.29 1024.67 1025.02 1025.33 1025.62 1025.88 1026.12 1026.33 1026.51 1026.66 1026.75 1026.80 1026.79 1026.73 1026.62 1026.48 1026.30 1026.10 1025.89 1025.67 1025.42 1025.16
1018.82 1019.16 1019.50 1019.83 1020.16 1020.48 1020.80 1021.13 1021.48 1021.85 1022.24 1022.66 1023.08 1023.50 1023.91 1024.29 1024.65 1024.96 1025.24 1025.49 1025.71 1025.92 1026.11 1026.28 1026.43 1026.55 1026.63 1026.66 1026.64 1026.57 1026.45 1026.28 1026.08 1025.84 1025.59 1025.33 1025.04 1024.75
1019.27 1019.62 1019.98 1020.32 1020.66 1020.99 1021.31 1021.65 1021.99 1022.36 1022.74 1023.13 1023.53 1023.92 1024.29 1024.62 1024.92 1025.18 1025.41 1025.60 1025.77 1025.92 1026.06 1026.19 1026.30 1026.38 1026.44 1026.45 1026.41 1026.32 1026.18 1025.98 1025.75 1025.49 1025.21 1024.92 1024.61 1024.30
1019.57 1019.94 1020.29 1020.64 1020.98 1021.30 1021.62 1021.95 1022.29 1022.64 1023.01 1023.39 1023.77 1024.14 1024.49 1024.79 1025.06 1025.28 1025.47 1025.62 1025.74 1025.85 1025.95 1026.04 1026.12 1026.17 1026.20 1026.18 1026.12 1026.01 1025.84 1025.63 1025.38 1025.10 1024.81 1024.50 1024.20 1023.89
1019.69 1020.06 1020.41 1020.75 1021.07 1021.38 1021.69 1022.00 1022.33 1022.68 1023.04 1023.41 1023.79 1024.15 1024.48 1024.77 1025.03 1025.23 1025.40 1025.53 1025.63 1025.71 1025.78 1025.85 1025.89 1025.92 1025.92 1025.89 1025.80 1025.67 1025.49 1025.27 1025.01 1024.73 1024.43 1024.13 1023.84 1023.55
1019.63 1019.99 1020.33 1020.65 1020.95 1021.24 1021.53 1021.83 1022.15 1022.48 1022.84 1023.21 1023.58 1023.94 1024.27 1024.57 1024.82 1025.03 1025.20 1025.32 1025.42 1025.50 1025.56 1025.61 1025.64 1025.65 1025.63 1025.58 1025.49 1025.34 1025.16 1024.93 1024.67 1024.39 1024.11 1023.83 1023.55 1023.29
1019.38 1019.73 1020.06 1020.36 1020.64 1020.92 1021.19 1021.48 1021.78 1022.11 1022.47 1022.84 1023.21 1023.57 1023.91 1024.22 1024.49 1024.71 1024.88 1025.02 1025.13 1025.21 1025.27 1025.32 1025.35 1025.35 1025.33 1025.27 1025.17 1025.02 1024.84 1024.61 1024.36 1024.10 1023.83 1023.57 1023.32 1023.08
1018.98 1019.32 1019.64 1019.92 1020.19 1020.45 1020.72 1021.00 1021.30 1021.63 1021.98 1022.35 1022.73 1023.10 1023.45 1023.77 1024.06 1024.29 1024.49 1024.65 1024.77 1024.87 1024.94 1025.00 1025.03 1025.03 1025.01 1024.95 1024.85 1024.70 1024.52 1024.31 1024.07 1023.82 1023.57 1023.32 1023.08 1022.85
1018.46 1018.79 1019.10 1019.38 1019.64 1019.90 1020.16 1020.44 1020.75 1021.08 1021.44 1021.82 1022.20 1022.58 1022.95 1023.28 1023.58 1023.83 1024.05 1024.23 1024.37 1024.48 1024.57 1024.63 1024.67 1024.68 1024.66 1024.60 1024.50 1024.37 1024.19 1023.99 1023.76 1023.52 1023.28 1023.04 1022.80 1022.57
1017.84 1018.17 1018.47 1018.75 1019.02 1019.28 1019.55 1019.85 1020.16 1020.51 1020.88 1021.27 1021.66 1022.05 1022.43 1022.77 1023.09 1023.36 1023.59 1023.79 1023.94 1024.07 1024.17 1024.24 1024.29 1024.30 1024.28 1024.23 1024.13 1024.00 1023.84 1023.64 1023.42 1023.19 1022.94 1022.70 1022.45 1022.20
Thickness
5737 5736 5735 5734 5732 5731 5729 5727 5721 5715 5714 5715 5716 5716 5715 5714 5713 5712 5710 5709 5708 5707 5705 5703 5702 5700 5698 5696 5694 5693 5691 5689 5687 5685 5684 5682 5681 5679
5736 5734 5733 5733 5732 5731 5729 5727 5724 5720 5714 5714 5713 5713 5711 5711 5708 5707 5706 5705 5703 5701 5700 5698 5697 5695 5693 5691 5689 5687 5685 5683 5681 5679 5677 5676 5675 5673
5734 5733 5732 5731 5730 5729 5727 5725 5722 5720 5714 5711 5710 5709 5707 5705 5703 5702 5700 5699 5697 5696 5694 5693 5691 5690 5687 5685 5683 5681 5679 5676 5674 5672 5670 5669 5668 5666
5732 5731 5730 5730 5728 5726 5724 5722 5720 5718 5714 5708 5706 5704 5702 5700 5698 5696 5694 5693 5691 5689 5688 5687 5685 5683 5681 5678 5676 5674 5672 5670 5667 5665 5663 5661 5660 5658
5730 5729 5728 5727 5725 5723 5721 5719 5717 5715 5711 5707 5702 5700 5697 5695 5692 5690 5689 5686 5685 5683 5681 5679 5677 5675 5673 5671 5669 5667 5665 5662 5660 5658 5656 5654 5652 5650
5728 5726 5725 5724 5722 5720 5718 5716 5714 5710 5706 5703 5698 5695 5692 5689 5687 5684 5682 5680 5678 5676 5674 5672 5670 5668 5666 5664 5661 5659 5657 5654 5652 5650 5648 5646 5644 5641
5724 5723 5722 5720 5719 5717 5715 5713 5710 5707 5702 5698 5694 5690 5687 5684 5682 5680 5677 5674 5671 5669 5667 5664 5662 5660 5657 5655 5653 5651 5649 5647 5645 5642 5640 5637 5635 5632
5719 5718 5717 5716 5714 5713 5711 5709 5707 5704 5699 5695 5690 5687 5683 5681 5678 5675 5672 5669 5665 5662 5660 5656 5653 5651 5649 5647 5645 5643 5641 5639 5636 5633 5631 5628 5625 5622
5714 5712 5712 5710 5709 5707 5705 5703 5701 5699 5697 5693 5688 5684 5681 5678 5674 5671 5666 5664 5660 5655 5652 5649 5645 5643 5640 5637 5636 5634 5632 5630 5627 5624 5621 5618 5615 5611
5708 5707 5705 5704 5703 5701 5700 5697 5694 5692 5690 5688 5684 5681 5677 5674 5670 5667 5662 5656 5652 5648 5646 5642 5638 5635 5632 5629 5627 5625 5623 5620 5617 5614 5611 5607 5604 5601
5702 5701 5700 5698 5697 5695 5693 5690 5687 5684 5683 5680 5677 5674 5671 5667 5664 5660 5655 5652 5647 5642 5638 5635 5631 5627 5624 5621 5618 5615 5613 5610 5607 5604 5601 5597 5593 5590
5695 5694 5692 5691 5690 5688 5686 5684 5680 5676 5674 5672 5669 5666 5662 5659 5656 5654 5651 5646 5641 5636 5631 5627 5624 5620 5616 5612 5609 5606 5603 5600 5597 5593 5590 5587 5583 5579
5689 5686 5685 5683 5682 5680 5678 5676 5672 5669 5666 5664 5661 5657 5654 5651 5648 5645 5642 5640 5635 5631 5626 5621 5617 5612 5609 5604 5600 5596 5593 5590 5586 5583 5580 5577 5573 5569
5682 5679 5677 5675 5673 5671 5669 5666 5664 5661 5658 5655 5652 5648 5645 5642 5638 5635 5632 5630 5627 5623 5619 5615 5611 5606 5601 5597 5593 5588 5584 5580 5577 5573 5570 5566 5563 5559
5674 5671 5669 5667 5665 5663 5660 5657 5655 5653 5650 5646 5643 5639 5635 5632 5629 5626 5623 5620 5617 5613 5609 5606 5603 5598 5594 5590 5585 5580 5576 5572 5568 5564 5561 5557 5553 5549
5666 5663 5661 5658 5656 5654 5651 5648 5646 5643 5640 5637 5633 5630 5626 5623 5620 5618 5614 5611 5607 5603 5600 5596 5593 5589 5585 5580 5576 5571 5567 5564 5559 5555 5551 5547 5543 5540
5658 5655 5653 5650 5647 5645 5642 5639 5636 5634 5630 5627 5624 5621 5618 5615 5611 5608 5605 5602 5598 5595 5590 5586 5581 5578 5574 5571 5567 5563 5559 5555 5551 5547 5542 5539 5535 5531
5651 5648 5644 5642 5639 5636 5634 5631 5628 5625 5622 5619 5615 5612 5609 5606 5603 5599 5596 5593 5590 5586 5582 5577 5573 5569 5565 5561 5557 5554 5550 5547 5542 5537 5533 5530 5528 5523
5643 5640 5637 5634 5631 5628 5625 5622 5620 5616 5613 5611 5608 5604 5601 5598 5594 5591 5587 5584 5581 5577 5573 5569 5565 5562 5559 5556 5552 5545 5542 5538 5534 5529 5525 5521 5519 5515
5635 5633 5629 5626 5623 5620 5617 5614 5611 5608 5605 5602 5599 5596 5593 5589 5586 5583 5579 5576 5573 5569 5565 5561 5557 5554 5551 5548 5544 5538 5533 5529 5525 5521 5517 5512 5509 5505
5627 5624 5622 5619 5616 5613 5610 5607 5603 5600 5597 5594 5591 5588 5585 5581 5578 5575 5571 5567 5563 5560 5558 5554 5549 5544 5540 5537 5534 5531 5526 5521 5516 5512 5508 5505 5502 5500
5620 5617 5614 5611 5608 5605 5602 5599 5596 5593 5590 5587 5584 5581 5577 5574 5571 5567 5564 5560 5556 5553 5550 5545 5540 5536 5532 5530 5527 5524 5519 5513 5508 5503 5499 5496 5493 5492
5614 5611 5608 5604 5601 5598 5595 5592 5589 5586 5582 5579 5576 5573 5570 5566 5563 5560 5556 5553 5549 5545 5541 5536 5532 5528 5525 5521 5518 5514 5510 5506 5502 5497 5493 5488 5485 5481